{"data":{"norad_id":60937,"epoch":"2026-05-25T03:23:35.995776Z","epoch_age_seconds":52929,"freshness":"FRESH","line1":"1 60937U 24155P   26145.14138884  .00001216  00000+0  53188-4 0  9995","line2":"2 60937  53.1591 134.7235 0001415  86.2241 273.8922 15.30195547 98044","mean_motion":15.30195547,"eccentricity":0.0001415,"inclination_deg":53.1591,"raan_deg":134.7235,"arg_perigee_deg":86.2241,"mean_anomaly_deg":273.8922,"bstar":5.3188e-5,"rev_number":9804,"period_min":94.105619561053,"perigee_km":474.25861410772,"apogee_km":476.1981165061,"semimajor_km":6853.3653653069,"source":"CELESTRAK","updated_at":"2026-05-25T13:38:19.320113Z"}}